User: anonymous   Login
Location: Arcones
(41.1182°N, 3.7238°W)
Time: 17:40:42
(UTC+00:00)
Language:

Meteor 2-20 - Orbit

View from above orbital plane
View from above orbital plane
View from above satellite
View from above satellite

Ground track
Ground track

The orbit is defined by the following mean orbital elements,

1 20826U          26039.22270425 +.00000000 +00000-0 +22247-4 0 00006
2 20826  82.5257 300.3993 0014119  32.0751 328.1265 13.84451727    09
Epoch (UTC): 08 February 2026 05:20:41
Eccentricity: 0.0014119
inclination: 82.5257°
perigee height: 938 km
apogee height: 958 km
right ascension of ascending node: 300.3993°
argument of perigee: 32.0751°
revolutions per day: 13.84451727
mean anomaly at epoch: 328.1265°

The dashed part of the orbit path shows where the satellite is in the earth's shadow,  

DLR